User: anonymous   Login
Location: Unspecified
(0.0000°N, 0.0000°E)
Time: 11:42:07
(UTC+00:00)
Language:

NORSAT 1 - Orbit

View from above orbital plane
View from above orbital plane
View from above satellite
View from above satellite

Ground track
Ground track

The orbit data is extracted from the following two-line orbital elements,

1 42826U 17042B   18288.20868038  .00000412  00000-0  47290-4 0  9991
2 42826  97.5832 185.8347 0015615 152.6396 207.5648 14.90791083 68215
Epoch (UTC): 15 October 2018 05:00:29
Eccentricity: 0.0015615
inclination: 97.5832°
perigee height: 584 km
apogee height: 606 km
right ascension of ascending node: 185.8347°
argument of perigee: 152.6396°
revolutions per day: 14.90791083
mean anomaly at epoch: 207.5648°
orbit number at epoch: 6821

The dashed part of the orbit path shows where the satellite is in the earth's shadow,  

DLR